Location: Audinghen
(50.8518°N, 1.6129°E)
Time: 10:05:36
(UTC+00:00)

DELTA 2 DEB (DPAF) - Pass Details

Date: 07 August 2020
Orbit: 642 x 645 km, 98.3° (Epoch: 20 September)

Event Time Altitude Azimuth Distance (km) Brightness Sun altitude
Exits shadow 01:00:27 40° 136° (SE) 959 4.7 -21.5°
Maximum altitude 01:01:55 64° 71° (ENE) 714 4.4 -21.4°
Drops below altitude 10° 01:06:21 10° 351° (N) 2,051 7.6 -21.2°
Sets 01:08:34 0° 348° (NNW) 2,965 8.6 -21.1°
